This demonstration page uses our WeatherBlox Daily Observations layout. Learn more.

Left ArrowRight Arrow

31.31129, -92.44514

Hourly Observations for August 22, 2018

Temp ( °F °C ) Dew Point ( °F °C ) Humidity (%) Winds ( mph kmh ) Pressure ( in mb ) Visibility ( mi km ) Precip ( " mm )
12:53 am 00:53 Clear 77 25 68 20 74 74 ENE 6 9 30.06 1018 7 11 0.00 0.00
1:53 am 01:53 Clear 77 25 68 20 74 74 E 5 7 30.06 1018 8 13 0.00 0.00
2:53 am 02:53 Clear 75 23.9 69 20.6 82 82 NE 6 9 30.06 1018 8 13 0.00 0.00
3:53 am 03:53 Clear 73 22.8 68 20 84 84 NNE 3 6 30.07 1018 8 13 0.00 0.00
4:53 am 04:53 Clear 72 22.2 68 20 87 87 NE 3 6 30.08 1019 8 13 0.00 0.00
5:53 am 05:53 Clear 72 22.2 68 20 87 87 NNE 7 11 30.09 1019 9 14 0.00 0.00
6:53 am 06:53 Sunny 72 22.2 67 19.4 84 84 Calm 30.11 1020 8 13 0.00 0.00
7:53 am 07:53 Sunny 75 23.9 67 19.4 76 76 NNE 5 7 30.13 1020 9 14 0.00 0.00
8:53 am 08:53 Sunny 80 26.7 68 20 67 67 ENE 5 7 30.14 1021 10 16 0.00 0.00
9:53 am 09:53 Sunny 84 28.9 67 19.4 57 57 ENE 9 15 30.14 1021 10 16 0.00 0.00
10:53 am 10:53 Sunny 87 30.6 66 18.9 50 50 N 9 15 30.15 1021 10 16 0.00 0.00
11:53 am 11:53 Sunny 88 31.1 67 19.4 50 50 VRB 6 9 30.14 1021 8 13 0.00 0.00
12:53 pm 12:53 Mostly Sunny 90 32.2 66 18.9 45 45 N 8 13 30.11 1020 10 16 0.00 0.00
1:53 pm 13:53 Mostly Sunny 92 33.3 65 18.3 41 41 N 9 15 30.11 1020 10 16 0.00 0.00
2:53 pm 14:53 Mostly Sunny 93 33.9 64 17.8 38 38 NNE 9 15 30.09 1019 10 16 0.00 0.00
3:53 pm 15:53 Mostly Sunny 93 33.9 64 17.8 38 38 NE 9 15 30.07 1018 10 16 0.00 0.00
4:53 pm 16:53 Mostly Sunny 92 33.3 63 17.2 38 38 N 9 15 30.06 1018 10 16 0.00 0.00
5:53 pm 17:53 Sunny 90 32.2 63 17.2 41 41 NE 7 11 30.05 1018 10 16 0.00 0.00
6:53 pm 18:53 Sunny 87 30.6 64 17.8 46 46 NE 8 13 30.05 1018 10 16 0.00 0.00
7:53 pm 19:53 Clear 83 28.3 64 17.8 53 53 NE 7 11 30.05 1018 9 14 0.00 0.00
8:53 pm 20:53 Clear 80 26.7 65 18.3 60 60 ENE 6 9 30.06 1018 10 16 0.00 0.00
9:53 pm 21:53 Clear 80 26.7 65 18.3 60 60 NE 5 7 30.08 1019 9 14 0.00 0.00
10:53 pm 22:53 Clear 77 25 66 18.9 69 69 NE 3 6 30.08 1019 9 14 0.00 0.00
11:53 pm 23:53 Clear 77 25 65 18.3 66 66 ENE 3 6 30.08 1019 8 13 0.00 0.03

Powered by AerisWeather